GW3562 Weather Reports


time (UTC)temp
C
wind
direction
speed
KPH
gust
KPH
rain 1hr
cm
rain 24hr
cm
rain mn
cm
humidity
%
barometer
mb
20260510123145 11 327 0.0 4.8 0.00 0.10 0.10 89 1012.6
20260510123006 11 320 0.0 6.4 0.00 0.10 0.10 89 1012.6
20260510122623 11 345 1.6 6.4 0.00 0.10 0.10 89 1012.8
20260510122125 11 102 0.0 6.4 0.00 0.10 0.10 89 1013.0
20260510121629 11 75 0.0 9.7 0.00 0.10 0.10 88 1013.0
20260510121531 11 294 0.0 9.7 0.00 0.10 0.10 88 1013.0
20260510121132 11 237 1.6 9.7 0.00 0.10 0.10 88 1012.8
20260510120629 11 332 0.0 11.3 0.00 0.10 0.10 89 1012.9
20260510120142 11 148 0.0 11.3 0.00 0.10 0.10 89 1012.7
20260510120039 11 341 0.0 11.3 0.00 0.10 0.10 89 1012.8
20260510115628 11 76 0.0 4.8 0.00 0.10 0.10 90 1012.6
20260510115127 11 73 0.0 0.0 0.00 0.10 0.10 90 1012.7
20260510114640 11 111 0.0 4.8 0.00 0.10 0.10 91 1012.7
20260510114508 11 112 0.0 4.8 0.00 0.10 0.10 91 1012.8
20260510114126 11 112 0.0 6.4 0.00 0.10 0.10 91 1012.7
20260510113625 11 353 3.2 6.4 0.00 0.10 0.10 91 1012.8
20260510113126 11 272 0.0 4.8 0.00 0.10 0.10 91 1012.2
20260510113029 11 272 0.0 4.8 0.00 0.10 0.10 91 1012.2
20260510112622 11 299 0.0 6.4 0.00 0.10 0.10 91 1012.4
20260510112127 11 152 0.0 8.0 0.00 0.10 0.10 92 1012.4
20260510111624 11 240 1.6 8.0 0.00 0.10 0.10 92 1012.5
20260510111543 11 235 1.6 8.0 0.00 0.10 0.10 92 1012.6
20260510111119 11 146 1.6 8.0 0.00 0.10 0.10 93 1012.5
20260510110627 11 156 0.0 9.7 0.00 0.10 0.10 93 1012.4
20260510110143 10 187 1.6 9.7 0.00 0.10 0.10 94 1012.4
20260510110109 10 280 0.0 9.7 0.00 0.10 0.10 94 1012.5
20260510105616 10 349 0.0 4.8 0.00 0.10 0.10 95 1012.4
20260510104629 10 259 0.0 8.0 0.00 0.10 0.10 95 1011.8
20260510104555 10 138 0.0 8.0 0.00 0.10 0.10 95 1011.9
20260510104128 10 109 0.0 3.2 0.00 0.10 0.10 95 1011.9
20260510103614 10 280 0.0 4.8 0.00 0.10 0.10 96 1012.0
20260510103116 10 131 0.0 4.8 0.00 0.10 0.10 96 1012.0
20260510103050 10 177 0.0 4.8 0.00 0.10 0.10 96 1012.2
20260510102633 10 307 0.0 0.0 0.00 0.10 0.10 96 1012.1
20260510102107 10 306 0.0 0.0 0.00 0.10 0.10 96 1012.1
20260510101634 9 304 0.0 0.0 0.00 0.10 0.10 96 1012.1
20260510101523 9 304 0.0 0.0 0.00 0.10 0.10 96 1012.1
20260510101117 9 280 0.0 0.0 0.00 0.10 0.10 95 1011.6
20260510100617 9 278 0.0 0.0 0.00 0.10 0.10 95 1011.3
20260510100123 9 276 0.0 0.0 0.00 0.10 0.10 95 1011.0
20260510100019 8 276 0.0 0.0 0.00 0.10 0.10 95 1011.2
20260510095640 9 276 0.0 0.0 0.00 0.10 0.10 95 1011.3
20260510095125 9 275 0.0 1.6 0.00 0.10 0.10 95 1011.6
20260510094615 9 230 0.0 4.8 0.00 0.10 0.10 95 1011.6
20260510094541 9 230 0.0 4.8 0.00 0.10 0.10 95 1011.9
20260510094122 9 119 0.0 0.0 0.00 0.10 0.10 95 1011.5
20260510093627 9 137 0.0 0.0 0.00 0.10 0.10 95 1011.6
20260510093131 9 126 0.0 0.0 0.00 0.10 0.10 95 1011.4
20260510093047 9 142 0.0 0.0 0.00 0.10 0.10 95 1011.7
20260510092633 9 143 0.0 0.0 0.00 0.10 0.10 94 1011.3
20260510092126 9 140 0.0 0.0 0.00 0.10 0.10 95 1011.2
20260510091647 9 141 0.0 0.0 0.00 0.10 0.10 94 1011.1
20260510091538 9 141 0.0 0.0 0.00 0.10 0.10 94 1011.3
20260510091116 9 141 0.0 0.0 0.00 0.10 0.10 94 1011.1
20260510090621 9 141 0.0 0.0 0.03 0.10 0.10 94 1011.1
20260510090124 10 140 0.0 0.0 0.05 0.10 0.10 94 1011.1
20260510090016 9 140 0.0 0.0 0.05 0.10 0.10 93 1011.3
20260510085629 10 140 0.0 0.0 0.05 0.10 0.10 94 1010.8
20260510085120 10 137 0.0 0.0 0.05 0.10 0.10 94 1010.8
20260510084632 10 138 0.0 0.0 0.05 0.10 0.10 94 1010.8
20260510084502 10 138 0.0 0.0 0.05 0.10 0.10 94 1011.0
20260510084135 10 138 0.0 3.2 0.05 0.10 0.10 94 1010.7
20260510083629 10 196 0.0 3.2 0.05 0.10 0.10 94 1010.7
20260510083120 10 48 0.0 4.8 0.05 0.10 0.10 94 1010.9
20260510083046 10 48 0.0 4.8 0.05 0.10 0.10 93 1011.1
20260510082631 10 54 1.6 4.8 0.05 0.10 0.10 93 1010.8
20260510082128 10 287 0.0 0.0 0.08 0.10 0.10 93 1010.8
20260510081617 10 288 0.0 4.8 0.08 0.10 0.10 93 1010.8
20260510081553 10 288 0.0 4.8 0.08 0.10 0.10 93 1011.0
20260510081116 10 249 1.6 8.0 0.08 0.10 0.10 93 1011.0
20260510080645 10 320 1.6 8.0 0.08 0.08 0.08 93 1011.2
20260510080141 10 295 0.0 8.0 0.05 0.05 0.05 93 1011.2
20260510080029 10 249 0.0 8.0 0.05 0.05 0.05 93 1011.5
20260510075641 10 171 0.0 4.8 0.05 0.05 0.05 92 1011.3
20260510075128 11 256 0.0 4.8 0.05 0.05 0.05 92 1011.3
20260510074656 11 154 0.0 11.3 0.05 0.05 0.05 92 1011.1
20260510074502 10 301 0.0 11.3 0.05 0.05 0.05 92 1011.5
20260510074143 11 266 0.0 11.3 0.05 0.05 0.05 92 1011.4
20260510073652 10 271 1.6 6.4 0.05 0.05 0.05 92 1011.9
20260510073142 11 280 0.0 3.2 0.05 0.05 0.05 91 1011.6
20260510073007 10 280 0.0 3.2 0.05 0.05 0.05 91 1011.8
20260510072628 11 183 0.0 12.9 0.05 0.05 0.05 91 1011.4
20260510072128 11 332 1.6 12.9 0.03 0.03 0.03 90 1011.4
20260510071636 11 217 1.6 9.7 0.03 0.03 0.03 90 1011.7
20260510071519 11 339 0.0 12.9 0.03 0.03 0.03 90 1011.9
20260510070632 11 276 1.6 12.9 0.00 0.00 0.00 88 1011.8
20260510070131 11 252 0.0 12.9 0.00 0.00 0.00 87 1011.7
20260510065620 11 253 0.0 12.9 0.00 0.00 0.00 86 1011.7
20260510065134 12 265 0.0 11.3 0.00 0.00 0.00 84 1011.6
20260510064623 12 276 1.6 16.1 0.00 0.00 0.00 83 1011.7
20260510064501 11 107 0.0 16.1 0.00 0.00 0.00 83 1012.1
20260510064137 12 354 1.6 16.1 0.00 0.00 0.00 83 1011.6
20260510063620 12 320 0.0 6.4 0.00 0.00 0.00 83 1011.5
20260510063120 12 242 0.0 14.5 0.00 0.00 0.00 84 1011.3
20260510063055 11 243 0.0 14.5 0.00 0.00 0.00 84 1011.7
20260510062639 12 54 0.0 14.5 0.00 0.00 0.00 83 1011.2
20260510062121 12 277 0.0 12.9 0.00 0.00 0.00 83 1011.1
20260510061625 12 308 0.0 8.0 0.00 0.00 0.00 83 1011.1
20260510061551 11 57 0.0 8.0 0.00 0.00 0.00 83 1011.4
20260510061200 12 229 1.6 9.7 0.00 0.00 0.00 83 1011.1
20260510060636 11 305 1.6 9.7 0.00 0.00 0.00 83 1011.0
20260510060128 11 276 0.0 8.0 0.00 0.00 0.00 83 1011.0
20260510060053 11 275 0.0 8.0 0.00 0.00 0.00 83 1011.4
20260510055623 11 344 3.2 12.9 0.00 0.00 0.00 84 1011.0
20260510055129 11 25 1.6 12.9 0.00 0.00 0.00 83 1011.3
20260510054654 11 314 0.0 9.7 0.00 0.00 0.00 83 1011.1
20260510054551 11 314 0.0 9.7 0.00 0.00 0.00 83 1011.5
20260510054117 11 297 1.6 9.7 0.00 0.00 0.00 84 1011.1
20260510053623 11 84 0.0 6.4 0.00 0.00 0.00 84 1010.9
20260510053150 11 300 0.0 14.5 0.00 0.00 0.00 84 1011.2
20260510053010 11 233 0.0 14.5 0.00 0.00 0.00 85 1011.5
20260510052629 11 245 3.2 14.5 0.00 0.00 0.00 85 1011.2
20260510052138 11 223 0.0 6.4 0.00 0.00 0.00 85 1011.2
20260510051622 11 62 0.0 8.0 0.00 0.00 0.00 85 1011.2
20260510051516 10 62 0.0 9.7 0.00 0.00 0.00 85 1011.6
20260510051147 11 325 0.0 9.7 0.00 0.00 0.00 86 1011.2
20260510050635 10 295 0.0 6.4 0.00 0.00 0.00 86 1011.1
20260510050134 10 97 0.0 6.4 0.00 0.00 0.00 86 1011.2
20260510050039 10 97 1.6 6.4 0.00 0.00 0.00 86 1011.7
20260510045656 10 64 0.0 3.2 0.00 0.00 0.00 86 1011.3
20260510045141 10 271 0.0 0.0 0.00 0.00 0.00 85 1011.2
20260510044617 10 271 0.0 0.0 0.00 0.00 0.00 85 1011.2
20260510044536 10 271 0.0 0.0 0.00 0.00 0.00 85 1011.7
20260510044133 11 271 0.0 1.6 0.00 0.00 0.00 85 1011.1
20260510043627 11 47 0.0 1.6 0.00 0.00 0.00 85 1011.1
20260510043148 11 47 0.0 0.0 0.00 0.00 0.00 85 1011.1
20260510043040 10 49 0.0 0.0 0.00 0.00 0.00 85 1011.6
20260510042628 11 68 0.0 4.8 0.00 0.00 0.00 85 1011.2
20260510042125 11 17 0.0 4.8 0.00 0.00 0.00 85 1011.0
20260510041633 11 338 0.0 3.2 0.00 0.00 0.00 85 1010.9
20260510041552 10 338 0.0 3.2 0.00 0.00 0.00 85 1011.4
20260510041142 11 290 0.0 3.2 0.00 0.00 0.00 85 1010.9
20260510040636 11 260 0.0 8.0 0.00 0.00 0.00 85 1010.7
20260510040153 10 57 0.0 8.0 0.00 0.00 0.00 85 1010.7
20260510040036 10 57 0.0 8.0 0.00 0.00 0.00 85 1011.2
20260510035634 10 187 0.0 0.0 0.00 0.00 0.00 85 1010.8
20260510035133 10 351 0.0 0.0 0.00 0.00 0.00 85 1010.9
20260510034646 10 354 0.0 0.0 0.00 0.00 0.00 85 1010.9
20260510034538 10 354 0.0 0.0 0.00 0.00 0.00 85 1011.4
20260510034127 10 354 0.0 0.0 0.00 0.00 0.00 85 1011.0
20260510033633 10 353 0.0 0.0 0.00 0.00 0.00 85 1011.0
20260510033131 10 353 0.0 0.0 0.00 0.00 0.00 85 1011.2
20260510033113 10 353 0.0 0.0 0.00 0.00 0.00 85 1011.7
20260510032634 10 146 0.0 0.0 0.00 0.00 0.00 85 1011.2
20260510032117 10 324 0.0 1.6 0.00 0.00 0.00 85 1011.2
20260510031621 10 296 0.0 1.6 0.00 0.00 0.00 86 1011.3
20260510031544 10 296 0.0 1.6 0.00 0.00 0.00 85 1011.8
20260510031130 10 339 0.0 0.0 0.00 0.00 0.00 86 1011.1
20260510030629 10 249 0.0 4.8 0.00 0.00 0.00 86 1011.1
20260510030155 10 233 0.0 4.8 0.00 0.00 0.00 86 1011.2
20260510030052 10 251 0.0 4.8 0.00 0.00 0.00 86 1011.7
20260510025608 10 216 0.0 4.8 0.00 0.00 0.00 86 1011.3
20260510025129 10 325 0.0 8.0 0.00 0.00 0.00 86 1011.2
20260510024631 10 178 0.0 8.0 0.00 0.00 0.00 86 1011.1
20260510024546 10 177 0.0 8.0 0.00 0.00 0.00 86 1011.6
20260510024134 10 12 0.0 4.8 0.00 0.00 0.00 86 1011.1
20260510023623 10 294 0.0 0.0 0.00 0.00 0.00 86 1011.1
20260510023146 10 282 0.0 0.0 0.00 0.00 0.00 86 1011.1
20260510023032 10 282 0.0 0.0 0.00 0.00 0.00 86 1011.7
20260510022620 10 282 0.0 3.2 0.00 0.00 0.00 86 1011.2
20260510022116 10 296 0.0 3.2 0.00 0.00 0.00 86 1011.3
20260510021622 10 260 0.0 0.0 0.00 0.00 0.00 86 1011.4
20260510021534 10 260 0.0 0.0 0.00 0.00 0.00 86 1011.9
20260510021144 10 256 0.0 3.2 0.00 0.00 0.00 86 1011.3
20260510020626 10 256 0.0 6.4 0.00 0.00 0.00 86 1011.4
20260510020141 10 196 0.0 3.2 0.00 0.00 0.00 86 1011.6
20260510020014 10 304 0.0 3.2 0.00 0.00 0.00 86 1012.1
20260510015631 10 303 0.0 3.2 0.00 0.00 0.00 86 1011.4
20260510015132 10 18 0.0 9.7 0.00 0.00 0.00 86 1011.5
20260510014638 10 190 0.0 9.7 0.00 0.00 0.00 86 1011.6
20260510014601 10 190 0.0 9.7 0.00 0.00 0.00 85 1012.1
20260510014120 10 143 0.0 11.3 0.00 0.00 0.00 86 1011.4
20260510013627 10 143 0.0 11.3 0.00 0.00 0.00 86 1011.4
20260510013138 10 96 0.0 3.2 0.00 0.00 0.00 86 1011.6
20260510013009 10 100 0.0 3.2 0.00 0.00 0.00 86 1012.2
20260510012634 10 107 0.0 3.2 0.00 0.00 0.00 86 1011.8
20260510012125 10 228 0.0 4.8 0.00 0.00 0.00 86 1011.8
20260510011636 10 308 0.0 3.2 0.00 0.00 0.00 86 1011.7
20260510011553 10 308 0.0 3.2 0.00 0.00 0.00 86 1012.2
20260510011131 10 308 0.0 3.2 0.00 0.00 0.00 86 1011.9
20260510010633 10 281 0.0 3.2 0.00 0.00 0.00 86 1011.8
20260510010153 10 187 0.0 0.0 0.00 0.00 0.00 85 1011.8
20260510010103 10 187 0.0 0.0 0.00 0.00 0.00 85 1012.3
20260510005625 10 131 0.0 0.0 0.00 0.00 0.00 85 1011.9
20260510005130 10 131 0.0 0.0 0.00 0.00 0.00 85 1011.9
20260510004631 10 282 0.0 4.8 0.00 0.00 0.00 85 1012.0
20260510004602 10 282 0.0 4.8 0.00 0.00 0.00 85 1012.5
20260510004145 10 244 0.0 4.8 0.00 0.00 0.00 85 1012.0
20260510003620 10 307 0.0 3.2 0.00 0.00 0.00 85 1011.9
20260510003152 10 69 0.0 3.2 0.00 0.00 0.00 84 1012.0
20260510003111 10 326 0.0 0.0 0.00 0.00 0.00 85 1012.5
20260510002615 10 325 0.0 4.8 0.00 0.00 0.00 84 1011.9
20260510002128 10 68 1.6 4.8 0.00 0.00 0.00 84 1012.0
20260510001641 10 42 0.0 0.0 0.00 0.00 0.00 84 1012.0
20260510001508 10 74 0.0 0.0 0.00 0.00 0.00 84 1012.5
20260510001125 10 74 0.0 4.8 0.00 0.00 0.00 84 1011.9
20260510000632 10 23 0.0 4.8 0.00 0.00 0.00 83 1011.8
20260510000137 10 297 0.0 0.0 0.00 0.00 0.00 83 1011.8
20260510000045 10 297 0.0 0.0 0.00 0.00 0.00 83 1012.3
20260509235634 10 297 0.0 0.0 0.00 0.00 0.00 83 1011.6
20260509235115 10 270 0.0 0.0 0.00 0.00 0.00 83 1011.8
20260509234615 10 5 0.0 0.0 0.00 0.00 0.00 83 1011.7
20260509234522 10 347 0.0 0.0 0.00 0.00 0.00 83 1012.2
20260509234125 10 348 0.0 0.0 0.00 0.00 0.00 83 1011.7
20260509233621 10 347 0.0 6.4 0.00 0.00 0.00 83 1011.8
20260509233128 10 356 0.0 6.4 0.00 0.00 0.00 83 1011.7
20260509233033 10 355 0.0 6.4 0.00 0.00 0.00 83 1012.2
20260509232624 10 232 0.0 4.8 0.00 0.00 0.00 83 1011.7
20260509232122 10 5 0.0 0.0 0.00 0.00 0.00 84 1011.6
20260509231619 10 64 0.0 0.0 0.00 0.00 0.00 84 1011.6
20260509231553 10 64 0.0 0.0 0.00 0.00 0.00 84 1012.1
20260509231128 10 64 0.0 0.0 0.00 0.00 0.00 84 1011.6
20260509230616 10 65 0.0 1.6 0.00 0.00 0.00 83 1011.6
20260509230140 10 282 0.0 8.0 0.00 0.00 0.00 84 1011.7
20260509230110 10 282 0.0 8.0 0.00 0.00 0.00 84 1012.2
20260509225626 10 258 1.6 8.0 0.00 0.00 0.00 83 1011.7
20260509225117 10 249 0.0 6.4 0.00 0.00 0.00 84 1011.8
20260509224619 10 249 0.0 6.4 0.00 0.00 0.00 84 1011.7
20260509224131 10 265 0.0 0.0 0.00 0.00 0.00 84 1011.8
20260509223616 10 325 0.0 0.0 0.00 0.00 0.00 84 1011.8
20260509223130 10 282 0.0 0.0 0.00 0.00 0.00 84 1011.9
20260509223029 9 282 0.0 0.0 0.00 0.00 0.00 83 1012.3
20260509222631 10 260 0.0 0.0 0.00 0.00 0.00 83 1011.9
20260509222116 10 269 0.0 11.3 0.00 0.00 0.00 83 1012.0
20260509221629 10 260 0.0 11.3 0.00 0.00 0.00 83 1012.0
20260509221535 10 263 0.0 11.3 0.00 0.00 0.00 83 1012.6
20260509221126 10 307 0.0 4.8 0.00 0.00 0.00 82 1012.1
20260509220626 10 315 0.0 4.8 0.00 0.00 0.00 82 1012.0
20260509220130 10 226 0.0 0.0 0.00 0.00 0.00 82 1012.0
20260509220052 10 226 0.0 0.0 0.00 0.00 0.00 82 1012.5
20260509215644 10 234 0.0 0.0 0.00 0.00 0.00 82 1012.0
20260509215135 10 50 0.0 0.0 0.00 0.00 0.00 82 1012.0
20260509214621 10 49 0.0 0.0 0.00 0.00 0.00 82 1012.0
20260509214556 10 49 0.0 0.0 0.00 0.00 0.00 82 1012.5
20260509214153 10 52 0.0 4.8 0.00 0.00 0.00 83 1012.1
20260509213632 10 47 0.0 4.8 0.00 0.00 0.00 82 1012.2
20260509213135 10 249 0.0 0.0 0.00 0.00 0.00 82 1012.2
20260509213002 10 49 0.0 0.0 0.00 0.00 0.00 82 1012.8
20260509212617 10 48 0.0 0.0 0.00 0.00 0.00 83 1012.2
20260509212116 10 47 0.0 8.0 0.00 0.00 0.00 83 1012.2
20260509211612 10 262 0.0 8.0 0.00 0.00 0.00 83 1012.3
20260509211544 10 263 0.0 8.0 0.00 0.00 0.00 83 1012.8
20260509211117 10 256 0.0 0.0 0.00 0.00 0.00 83 1012.3
20260509210620 10 141 0.0 0.0 0.00 0.00 0.00 83 1012.3
20260509210138 10 141 0.0 0.0 0.00 0.00 0.00 84 1012.4
20260509210101 9 141 0.0 0.0 0.00 0.00 0.00 84 1012.9
20260509205623 10 175 0.0 0.0 0.00 0.00 0.00 83 1012.4
20260509205128 10 177 0.0 0.0 0.00 0.00 0.00 83 1012.5
20260509204627 10 245 0.0 0.0 0.00 0.00 0.00 83 1012.5
20260509204558 10 245 0.0 0.0 0.00 0.00 0.00 83 1013.1
20260509204136 10 244 0.0 4.8 0.00 0.00 0.00 82 1012.5
20260509203650 10 233 0.0 4.8 0.00 0.00 0.00 81 1012.5
20260509203124 10 327 0.0 0.0 0.00 0.00 0.00 81 1012.6
20260509203037 10 326 0.0 0.0 0.00 0.00 0.00 81 1013.2
20260509202623 10 175 0.0 0.0 0.00 0.00 0.00 81 1012.6
20260509202141 10 112 0.0 0.0 0.00 0.00 0.00 81 1012.7
20260509201635 10 112 0.0 6.4 0.00 0.00 0.00 81 1012.7
20260509201543 10 111 0.0 6.4 0.00 0.00 0.00 81 1013.2
20260509201131 10 102 1.6 6.4 0.00 0.00 0.00 80 1012.7
20260509200620 10 7 0.0 0.0 0.00 0.00 0.00 80 1012.7
20260509200129 11 247 0.0 0.0 0.00 0.00 0.00 79 1012.7
20260509200030 10 247 0.0 0.0 0.00 0.00 0.00 78 1013.3
20260509195633 11 256 0.0 0.0 0.00 0.00 0.00 77 1012.8
20260509195138 11 5 0.0 0.0 0.00 0.00 0.00 76 1012.8
20260509194623 11 24 0.0 9.7 0.00 0.00 0.00 75 1012.7
20260509194513 11 249 0.0 9.7 0.00 0.00 0.00 76 1013.2
20260509194135 11 249 0.0 9.7 0.00 0.00 0.00 74 1012.7
20260509193623 11 256 1.6 11.3 0.00 0.00 0.00 74 1012.6
20260509193130 11 230 0.0 11.3 0.00 0.00 0.00 74 1012.6
20260509193036 11 178 0.0 11.3 0.00 0.00 0.00 74 1013.2
20260509192632 11 211 0.0 4.8 0.00 0.00 0.00 75 1012.6
20260509192151 11 242 0.0 8.0 0.00 0.00 0.00 74 1012.6
20260509191617 11 216 1.6 8.0 0.00 0.00 0.00 73 1012.7
20260509191540 11 214 0.0 8.0 0.00 0.00 0.00 73 1013.2
20260509191205 11 225 0.0 8.0 0.00 0.00 0.00 72 1012.8
20260509190627 11 226 3.2 8.0 0.00 0.00 0.00 72 1012.8
20260509190131 11 185 0.0 8.0 0.00 0.00 0.00 72 1012.8
20260509190049 11 191 0.0 8.0 0.00 0.00 0.00 72 1013.3
20260509185630 11 235 1.6 6.4 0.00 0.00 0.00 72 1012.9
20260509185130 11 146 0.0 1.6 0.00 0.00 0.00 72 1012.9
20260509184632 11 146 0.0 1.6 0.00 0.00 0.00 72 1013.0
20260509184536 11 146 0.0 1.6 0.00 0.00 0.00 72 1013.6
20260509184122 11 216 0.0 6.4 0.00 0.00 0.00 73 1013.2
20260509183630 11 216 1.6 6.4 0.00 0.00 0.00 72 1013.3
20260509183134 11 288 0.0 6.4 0.00 0.00 0.00 72 1013.9
20260509183111 11 287 0.0 6.4 0.00 0.00 0.00 72 1013.3
20260509182618 11 133 1.6 6.4 0.00 0.00 0.00 71 1013.4
20260509182117 11 283 0.0 6.4 0.00 0.00 0.00 72 1013.4
20260509181624 11 237 1.6 6.4 0.00 0.00 0.00 71 1013.4
20260509181542 11 277 0.0 6.4 0.00 0.00 0.00 71 1014.0
20260509181149 11 241 0.0 6.4 0.00 0.00 0.00 71 1013.4
20260509180652 11 262 0.0 3.2 0.00 0.00 0.00 71 1013.5
20260509180129 11 14 0.0 8.0 0.00 0.00 0.00 70 1013.4
20260509180050 11 5 0.0 8.0 0.00 0.00 0.00 70 1014.0
20260509175626 11 157 1.6 8.0 0.00 0.00 0.00 69 1013.4
20260509175138 11 211 0.0 6.4 0.00 0.00 0.00 67 1013.5
20260509174653 11 176 0.0 6.4 0.00 0.00 0.00 66 1013.5
20260509174532 11 296 0.0 6.4 0.00 0.00 0.00 66 1014.1
20260509174133 12 312 0.0 12.9 0.00 0.00 0.00 63 1013.5
20260509173645 12 225 3.2 12.9 0.00 0.00 0.00 60 1013.5
20260509173141 12 206 3.2 6.4 0.00 0.00 0.00 59 1013.5
20260509173020 12 195 0.0 4.8 0.00 0.00 0.00 59 1014.2
20260509172643 12 147 0.0 1.6 0.00 0.00 0.00 58 1013.5
20260509172124 12 259 0.0 3.2 0.00 0.00 0.00 57 1013.5
20260509171628 13 244 0.0 6.4 0.00 0.00 0.00 57 1013.6
20260509171532 12 295 0.0 6.4 0.00 0.00 0.00 57 1014.1
20260509171144 13 218 1.6 9.7 0.00 0.00 0.00 54 1013.5
20260509170620 13 268 0.0 9.7 0.00 0.00 0.00 53 1013.5
20260509170123 13 247 0.0 9.7 0.00 0.00 0.00 53 1013.4
20260509170020 13 240 0.0 9.7 0.00 0.00 0.00 53 1014.1
20260509165629 13 286 0.0 9.7 0.00 0.00 0.00 51 1013.5
20260509165142 13 305 1.6 8.0 0.00 0.00 0.00 49 1013.5
20260509164627 14 5 0.0 4.8 0.00 0.00 0.00 49 1013.5
20260509164520 13 5 0.0 4.8 0.00 0.00 0.00 48 1014.1
20260509164143 14 5 0.0 8.0 0.00 0.00 0.00 47 1013.5
20260509163628 14 8 0.0 8.0 0.00 0.00 0.00 49 1013.6
20260509163122 14 309 1.6 4.8 0.00 0.00 0.00 48 1013.6
20260509163011 13 343 0.0 4.8 0.00 0.00 0.00 47 1014.2
20260509162652 14 154 0.0 0.0 0.00 0.00 0.00 47 1013.6
20260509162132 13 171 0.0 3.2 0.00 0.00 0.00 45 1013.7
20260509161615 13 347 0.0 9.7 0.00 0.00 0.00 46 1013.8
20260509161508 13 347 0.0 9.7 0.00 0.00 0.00 45 1014.4
20260509161130 13 356 3.2 9.7 0.00 0.00 0.00 45 1013.8
20260509160639 13 299 0.0 6.4 0.00 0.00 0.00 43 1013.9
20260509160125 13 276 0.0 6.4 0.00 0.00 0.00 42 1014.0
20260509160052 13 276 0.0 6.4 0.00 0.00 0.00 42 1014.7
20260509155629 13 311 0.0 6.4 0.00 0.00 0.00 43 1014.0
20260509155128 14 24 1.6 11.3 0.00 0.00 0.00 41 1014.1
20260509154614 14 347 1.6 11.3 0.00 0.00 0.00 40 1014.1
20260509154526 14 218 0.0 6.4 0.00 0.00 0.00 39 1014.8
20260509154135 15 224 0.0 11.3 0.00 0.00 0.00 38 1014.2
20260509153623 15 353 1.6 11.3 0.00 0.00 0.00 40 1014.1
20260509153135 15 263 0.0 6.4 0.00 0.00 0.00 40 1014.2
20260509153020 15 263 0.0 6.4 0.00 0.00 0.00 38 1014.9
20260509152642 15 266 0.0 6.4 0.00 0.00 0.00 39 1014.2
20260509152122 15 357 0.0 8.0 0.00 0.00 0.00 37 1014.3
20260509151626 15 6 0.0 8.0 0.00 0.00 0.00 43 1014.3
20260509151541 15 6 0.0 8.0 0.00 0.00 0.00 44 1015.0
20260509151130 15 89 0.0 0.0 0.00 0.00 0.00 45 1014.4
20260509150649 14 354 0.0 3.2 0.00 0.00 0.00 42 1014.4
20260509150117 14 292 0.0 8.0 0.00 0.00 0.00 39 1014.5
20260509150023 14 166 0.0 8.0 0.00 0.00 0.00 38 1015.2
20260509145614 15 280 1.6 8.0 0.00 0.00 0.00 38 1014.5
20260509145132 14 317 0.0 12.9 0.00 0.00 0.00 43 1014.3
20260509144630 14 349 4.8 12.9 0.00 0.00 0.00 41 1014.3
20260509144537 13 356 4.8 12.9 0.00 0.00 0.00 42 1015.0
20260509144119 14 346 4.8 11.3 0.00 0.00 0.00 42 1014.5
20260509143636 13 349 3.2 11.3 0.00 0.00 0.00 44 1014.6
20260509143132 13 287 0.0 8.0 0.00 0.00 0.00 42 1014.6
20260509143038 13 224 0.0 8.0 0.00 0.00 0.00 42 1015.3
20260509142628 13 299 0.0 8.0 0.00 0.00 0.00 41 1014.6
20260509142126 13 342 0.0 6.4 0.00 0.00 0.00 44 1014.7
20260509141651 13 285 0.0 4.8 0.00 0.00 0.00 46 1014.8
20260509141611 13 214 0.0 4.8 0.00 0.00 0.00 46 1015.5
20260509141142 13 346 0.0 9.7 0.00 0.00 0.00 45 1014.8
20260509140626 13 328 1.6 9.7 0.00 0.00 0.00 47 1014.7
20260509140133 13 237 1.6 8.0 0.00 0.00 0.00 44 1014.8
20260509140027 12 270 0.0 8.0 0.00 0.00 0.00 44 1015.4
20260509135626 13 335 0.0 9.7 0.00 0.00 0.00 46 1014.7
20260509135145 13 340 3.2 9.7 0.00 0.00 0.00 42 1014.7
20260509134620 13 268 0.0 4.8 0.00 0.00 0.00 43 1014.8
20260509134601 12 268 0.0 4.8 0.00 0.00 0.00 43 1015.6
20260509134114 13 206 0.0 6.4 0.00 0.00 0.00 44 1014.9
20260509133647 13 305 1.6 9.7 0.00 0.00 0.00 44 1014.9
20260509133130 12 304 3.2 9.7 0.00 0.00 0.00 44 1015.0
20260509133105 12 252 1.6 8.0 0.00 0.00 0.00 44 1015.7
20260509132629 12 275 0.0 8.0 0.00 0.00 0.00 45 1014.9
20260509132125 12 25 1.6 12.9 0.00 0.00 0.00 44 1015.0
20260509131633 12 275 3.2 12.9 0.00 0.00 0.00 45 1015.1
20260509131528 12 282 0.0 4.8 0.00 0.00 0.00 44 1015.7
20260509131132 12 127 0.0 4.8 0.00 0.00 0.00 47 1015.1
20260509130655 11 277 0.0 6.4 0.00 0.00 0.00 48 1015.1
20260509130123 11 224 1.6 6.4 0.00 0.00 0.00 51 1015.2
20260509130036 11 294 0.0 6.4 0.00 0.00 0.00 51 1016.0
20260509125623 11 146 1.6 4.8 0.00 0.00 0.00 51 1015.1
20260509125132 10 259 0.0 6.4 0.00 0.00 0.00 56 1015.2
20260509124520 8 251 0.0 8.0 0.00 0.00 0.00 64 1016.1
20260509124145 8 221 0.0 6.4 0.00 0.00 0.00 68 1015.3
20260509123627 7 242 0.0 6.4 0.00 0.00 0.00 71 1015.3